Regional Weather Roundup
Issued by NWS

Home | Current Version | Previous Version | Graphics & Text | Print | Product List | Glossary On
Versions: 1 2 3 4 5 6 7 8 9 10 11 12 13 14 15 16 17 18 19 20 21 22 23 24 25 26 27 28 29 30 31 32 33 34 35 36 37 38 39 40 41 42 43 44 45 46 47 48 49 50
000
ASUS43 KLMK 201602
RWRKY
KENTUCKY REGIONAL WEATHER ROUNDUP
NATIONAL WEATHER SERVICE LOUISVILLE KY
1200 PM EDT SAT SEP 20 2014

NOTE "FAIR" INDICATES FEW OR NO CLOUDS BELOW 12,000 FEET
WITH NO SIGNIFICANT WEATHER AND/OR OBSTRUCTIONS TO VISIBILITY.

KYZ001>023-026-027-061>063-070>075-201700-
WESTERN AND SOUTH CENTRAL KENTUCKY

CITY           SKY/WX    TMP DP  RH WIND       PRES   REMARKS
PADUCAH        SUNNY     83  69  62 S7        30.07F
HENDERSON      PTSUNNY   82  66  57 S8        30.07F
OWENSBORO      SUNNY     82  68  62 SW15      30.09S
HOPKINSVILLE   MOSUNNY   80  68  65 S9        30.11F
BOWLING GREEN  MOSUNNY   79  63  57 S15       30.12F
GLASGOW        NOT AVBL
$$

KYZ024-025-028>034-038-045-046-053-201700-
NORTH CENTRAL KENTUCKY

CITY           SKY/WX    TMP DP  RH WIND       PRES   REMARKS
LOUISVILLE/SDF CLOUDY    79  64  60 SW15G25   30.09F
LOUISVILLE/LOU MOSUNNY   77  64  64 S15       30.09F
FORT KNOX      MOSUNNY   78  65  63 S12       30.10F
$$

KYZ035>037-039>044-047>052-055>060-089>105-201700-
NORTHEAST KENTUCKY

CITY           SKY/WX    TMP DP  RH WIND       PRES   REMARKS
LEXINGTON      MOSUNNY   80  63  55 SW10      30.13F
COVINGTON      PTSUNNY   76  65  68 SW10G20   30.09F
FRANKFORT      MOSUNNY   76  63  64 SW16G24   30.11F
$$

KYZ054-064>069-076>088-106>120-201700-
SOUTHEAST KENTUCKY

CITY           SKY/WX    TMP DP  RH WIND       PRES   REMARKS
JACKSON        CLOUDY    73  61  65 VRB3      30.17F
LONDON         PTSUNNY   75  60  59 S9        30.18F
SOMERSET       SUNNY     73  61  64 SE7       30.17F
MIDDLESBORO    SUNNY     75  60  61 CALM      30.19F
MONTICELLO     SUNNY     80  63  56 S8        30.17F
$$




USA.gov is the U.S. government's official web portal to all federal, state and local government web resources and services.